User: anonymous   Login
Location: Unspecified
(0.0000°N, 0.0000°E)
Time: 13:31:43
(UTC+02:00)
Language:

YAOGAN 3 - Orbit

View from above orbital plane
View from above orbital plane
View from above satellite
View from above satellite

Ground track
Ground track

The orbit data is extracted from the following two-line orbital elements,

1 32289U 07055A   15210.09339065  .00000532  00000-0  76278-4 0  9999
2 32289 097.9646 204.0627 0001640 074.2080 285.9315 14.80512815416762
Epoch (UTC): 29 July 2015 02:14:28
Eccentricity: 0.0001640
inclination: 97.9646°
perigee height: 626 km
apogee height: 629 km
right ascension of ascending node: 204.0627°
argument of perigee: 74.2080°
revolutions per day: 14.80512815
mean anomaly at epoch: 285.9315°
orbit number at epoch: 41676

The dashed part of the orbit path shows where the satellite is in the earth's shadow,  

DLR